Lovelock, NV

4:35 PM PST on February 26, 2017 (GMT -0800)
Derby

Weather History for KLOL - July, 2013

Change the Weather History Date:

Monday, July 29, 2013

  Actual Average Record
Temperature  
Mean Temperature 78 °F -  
Max Temperature 96 °F 97 °F 107 °F (2016)
Min Temperature 61 °F 58 °F 44 °F (1948)
Cooling Degree Days 13    
Growing Degree Days 28 (Base 50)    
Moisture  
Dew Point 28 °F    
Average Humidity 17    
Maximum Humidity 35    
Minimum Humidity 7    
Precipitation  
Precipitation 0.00 in - - ()
Sea Level Pressure  
Sea Level Pressure 29.83 in    
Wind  
Wind Speed 8 mph (SW)    
Max Wind Speed 21 mph    
Max Gust Speed 24 mph    
Visibility 10 miles    
Events      
Averages and records for this station are not official NWS values.
T = Trace of Precipitation, MM = Missing Value Source: NWS Daily Summary

Daily Weather History Graph

Daily Weather History Graph

Search for Another Location

Airport or City:

Trip Planner

Search our weather history database for the weather conditions in past years. The results will help you decide how hot, cold, wet, or windy it might be!

Date:

Astronomy

Jul. 29, 2013 Rise Set
Actual Time 5:50 AM PDT 8:10 PM PDT
Civil Twilight 5:19 AM PDT 8:41 PM PDT
Nautical Twilight 4:41 AM PDT 9:19 PM PDT
Astronomical Twilight 3:59 AM PDT 10:00 PM PDT
Moon No Moon Rise 1:36 PM PDT (7/29)
Length of Visible Light 15h 21m
Length of Day
14h 20m
Waning Gibbous, 50% of the Moon is Illuminated
Jul 29
Waning Gibbous
Aug 6
New
Aug 14
First Quarter
Aug 20
Full
Aug 28
Last Quarter

Hourly Weather History & Observations

Time (PDT) Temp. Dew Point Humidity Pressure Visibility Wind Dir Wind Speed Gust Speed Precip Events Conditions
12:53 AM 77.0 °F 30.0 °F 18% 29.75 in 10.0 mi SW 4.6 mph - N/A   Scattered Clouds
1:53 AM 73.0 °F 32.0 °F 22% 29.76 in 10.0 mi SW 10.4 mph - N/A   Mostly Cloudy
2:53 AM 64.0 °F 35.1 °F 34% 29.78 in 10.0 mi SSW 6.9 mph - N/A   Partly Cloudy
3:53 AM 66.0 °F 35.1 °F 32% 29.79 in 10.0 mi SW 3.5 mph - N/A   Scattered Clouds
4:53 AM 64.9 °F 34.0 °F 32% 29.81 in 10.0 mi Variable 3.5 mph - N/A   Partly Cloudy
5:53 AM 61.0 °F 33.1 °F 35% 29.82 in 10.0 mi SSE 3.5 mph - N/A   Clear
6:53 AM 64.0 °F 34.0 °F 33% 29.83 in 10.0 mi SSW 9.2 mph - N/A   Clear
7:53 AM 72.0 °F 36.0 °F 27% 29.84 in 10.0 mi Calm Calm - N/A   Clear
8:53 AM 80.1 °F 35.1 °F 20% 29.84 in 10.0 mi South 5.8 mph - N/A   Clear
9:53 AM 84.0 °F 35.1 °F 17% 29.84 in 10.0 mi SSE 11.5 mph - N/A   Clear
10:53 AM 87.1 °F 30.9 °F 13% 29.83 in 10.0 mi SSW 11.5 mph - N/A   Clear
11:53 AM 90.0 °F 28.9 °F 11% 29.82 in 10.0 mi SSW 16.1 mph 21.9 mph N/A   Clear
12:53 PM 91.0 °F 28.0 °F 10% 29.82 in 10.0 mi South 11.5 mph 23.0 mph N/A   Clear
1:53 PM 91.9 °F 26.1 °F 9% 29.81 in 10.0 mi South 10.4 mph 18.4 mph N/A   Clear
2:53 PM 93.9 °F 26.1 °F 9% 29.81 in 10.0 mi South 17.3 mph 21.9 mph N/A   Clear
3:21 PM 95.0 °F 23.0 °F 8% 29.93 in 10.0 mi WNW 10.4 mph 21.9 mph N/A   Clear
3:53 PM 93.9 °F 21.0 °F 7% 29.78 in 10.0 mi SW 15.0 mph 24.2 mph N/A   Clear
4:53 PM 93.9 °F 23.0 °F 8% 29.78 in 10.0 mi WNW 8.1 mph 21.9 mph N/A   Clear
5:53 PM 93.0 °F 25.0 °F 9% 29.79 in 10.0 mi WNW 13.8 mph - N/A   Clear
6:53 PM 91.0 °F 27.0 °F 10% 29.80 in 10.0 mi West 20.7 mph - N/A   Clear
7:53 PM 84.0 °F 25.0 °F 12% 29.83 in 10.0 mi West 20.7 mph - N/A   Clear
8:53 PM 81.0 °F 21.0 °F 11% 29.86 in 10.0 mi West 9.2 mph - N/A   Clear
9:53 PM 75.0 °F 19.9 °F 13% 29.89 in 10.0 mi WSW 4.6 mph - N/A   Clear
10:53 PM 69.1 °F 19.0 °F 15% 29.92 in 10.0 mi East 3.5 mph - N/A   Clear
11:53 PM 66.0 °F 17.1 °F 15% 29.95 in 10.0 mi WNW 10.4 mph - N/A   Clear